STARLINK-34325 (64262 NORAD) Tracking and Keplerian Element Data

This shows tracking and keplerian element data for the satellite.

Feedback or suggestion? Click here.




ElementValue
Catalog64262
NameSTARLINK-34325
Epoch Orbit3168
Epoch Day353.81622787
Epoch Year2025
RAAN127.9535
Inclination53.1575
Eccentricity0.0002612
Argument of Perigee40.5403
Mean Anonmoly319.5792
Mean Motion15.30211331
Decay Rate0.00015699
L11 64262U 25120G 25353.81622787 .00015699 00000+0 54086-3 0 9994
L22 64262 53.1575 127.9535 0002612 40.5403 319.5792 15.30211331 31681



Live tracking and technical data element details for STARLINK-34325 (NORAD 64262). STARLINK-34325 can be tracked NOW for your location showing map with azimuth and elevation plus other details from your city location.







IsCatalogInMostPopularTable: catalog: 64262, numindb: 16
Update: records affected: 1



GetName: 64262 STARLINK-34325

Hit Count: updated at: Sat, 11 Apr 2026 21:08:20 GMT